Weather History for Grand Rapids, MI

Change the Weather History Date:

Saturday, November 2, 2013

  Actual Average Record
Temperature  
Mean Temperature 44 °F 45 °F  
Max Temperature 48 °F 54 °F 77 °F (1938)
Min Temperature 40 °F 37 °F 18 °F (1951)
Degree Days  
Heating Degree Days 21 20  
Month to date heating degree days 36 39  
Since 1 July heating degree days 550 631  
Cooling Degree Days 0 0  
Month to date cooling degree days 0 0  
Year to date cooling degree days 767 699  
Moisture  
Dew Point 40 °F    
Average Humidity 76    
Maximum Humidity 92    
Minimum Humidity 60    
Precipitation  
Precipitation 0.14 in 0.13 in 2.69 in (2003)
Month to date precipitation 0.40 0.25  
Year to date precipitation 39.43 32.51  
Snow  
Snow 0.00 in 0.10 in 1.50 in (1991)
Month to date snowfall 0.0 0.2  
Since 1 July snowfall T 0.7  
Since 1 September snowfall T 0.7  
Snow Depth 0.00 in    
Sea Level Pressure  
Sea Level Pressure 29.85 in    
Wind  
Wind Speed 6 mph (NNW)    
Max Wind Speed 15 mph    
Max Gust Speed 18 mph    
Visibility 10 miles    
Events Rain    
T = Trace of Precipitation, MM = Missing Value Source: NWS Daily Summary

Daily Weather History Graph

Daily Weather History Graph

Search for Another Location

Airport:

Trip Planner

Search our weather history database for the weather conditions in past years. The results will help you decide how hot, cold, wet, or windy it might be!

Date:

Astronomy

Nov. 02, 2013 Rise Set
Actual Time 8:17 AM EDT 6:32 PM EDT
Civil Twilight 7:48 AM EDT 7:02 PM EDT
Nautical Twilight 7:14 AM EDT 7:35 PM EDT
Astronomical Twilight 6:41 AM EDT 8:08 PM EDT
Moon 7:13 AM EDT (11/2) 6:04 PM EDT (11/2)
Length of Visible Light 11h 13m
Length of Day
10h 14m
Waning Crescent, 1% of the Moon is Illuminated
Nov 2
Waning Crescent
Nov 3
New
Nov 10
First Quarter
Nov 17
Full
Nov 25
Last Quarter

Hourly Weather History & Observations

Time (EDT) Temp. Windchill Dew Point Humidity Pressure Visibility Wind Dir Wind Speed Gust Speed Precip Events Conditions
12:12 AM 46.4 °F 44.3 °F 44.6 °F 93% 29.66 in 9.0 mi West 4.6 mph - 0.00 in Rain Light Rain
12:27 AM 46.4 °F 43.5 °F 44.6 °F 93% 29.66 in 10.0 mi West 5.8 mph - 0.01 in   Overcast
12:53 AM 46.9 °F - 44.1 °F 90% 29.67 in 9.0 mi West 6.9 mph - 0.01 in   Overcast
1:53 AM 46.0 °F 42.5 °F 44.1 °F 93% 29.68 in 7.0 mi West 6.9 mph - 0.01 in Rain Light Rain
2:32 AM 46.4 °F 43.5 °F 42.8 °F 87% 29.67 in 4.0 mi NNW 5.8 mph - 0.05 in Rain Rain
2:41 AM 46.4 °F 45.2 °F 42.8 °F 87% 29.67 in 8.0 mi NNW 3.5 mph - 0.05 in Rain Light Rain
2:53 AM 46.0 °F 43.9 °F 43.0 °F 89% 29.68 in 10.0 mi NW 4.6 mph - 0.06 in Rain Light Rain
3:00 AM 46.4 °F 44.3 °F 42.8 °F 87% 29.67 in 10.0 mi NW 4.6 mph - 0.00 in Rain Light Rain
3:08 AM 46.4 °F 44.3 °F 42.8 °F 87% 29.68 in 10.0 mi NW 4.6 mph - 0.00 in Rain Light Rain
3:53 AM 45.0 °F 42.6 °F 42.1 °F 90% 29.69 in 10.0 mi WNW 4.6 mph - 0.00 in Rain Light Rain
4:53 AM 45.0 °F 42.6 °F 42.1 °F 90% 29.70 in 10.0 mi WNW 4.6 mph - 0.01 in Rain Light Rain
5:00 AM 44.6 °F 42.2 °F 42.8 °F 93% 29.69 in 10.0 mi WNW 4.6 mph - 0.00 in Rain Light Rain
5:53 AM 45.0 °F 41.8 °F 42.1 °F 90% 29.72 in 9.0 mi NNW 5.8 mph - 0.01 in Rain Light Rain
6:53 AM 44.1 °F 39.5 °F 41.0 °F 89% 29.75 in 10.0 mi North 8.1 mph - 0.01 in Rain Light Rain
7:53 AM 43.0 °F 38.8 °F 39.9 °F 89% 29.78 in 10.0 mi North 6.9 mph - 0.00 in   Overcast
8:53 AM 43.0 °F 38.8 °F 39.9 °F 89% 29.81 in 10.0 mi North 6.9 mph - 0.00 in Rain Light Rain
9:53 AM 44.1 °F 40.1 °F 39.9 °F 85% 29.83 in 10.0 mi NNW 6.9 mph - 0.00 in   Mostly Cloudy
10:53 AM 46.0 °F 41.4 °F 37.9 °F 73% 29.83 in 10.0 mi North 9.2 mph - N/A   Mostly Cloudy
11:38 AM 46.4 °F 41.9 °F 37.4 °F 71% 29.84 in 10.0 mi North 9.2 mph - N/A   Mostly Cloudy
11:53 AM 46.9 °F - 37.9 °F 71% 29.86 in 10.0 mi North 8.1 mph - N/A   Overcast
12:53 PM 46.9 °F - 37.0 °F 68% 29.88 in 10.0 mi NNW 8.1 mph - N/A   Overcast
1:20 PM 46.4 °F 41.5 °F 37.4 °F 71% 29.87 in 10.0 mi North 10.4 mph - 0.00 in Rain Light Rain
1:53 PM 46.9 °F - 37.9 °F 71% 29.89 in 10.0 mi Variable 5.8 mph - 0.00 in   Mostly Cloudy
2:15 PM 46.4 °F 42.4 °F 37.4 °F 71% 29.88 in 10.0 mi North 8.1 mph - N/A   Mostly Cloudy
2:53 PM 48.0 °F - 37.0 °F 66% 29.90 in 10.0 mi NNE 11.5 mph - N/A   Overcast
3:28 PM 46.4 °F - 37.4 °F 71% 29.90 in 10.0 mi Calm Calm - 0.01 in Rain Light Rain
3:53 PM 48.0 °F - 37.9 °F 68% 29.92 in 10.0 mi North 3.5 mph - 0.01 in   Mostly Cloudy
4:53 PM 46.9 °F - 34.0 °F 61% 29.95 in 10.0 mi NNW 8.1 mph - N/A   Mostly Cloudy
5:53 PM 46.0 °F 43.1 °F 36.0 °F 68% 29.98 in 10.0 mi North 5.8 mph - N/A   Mostly Cloudy
6:53 PM 44.1 °F 40.8 °F 37.9 °F 79% 30.01 in 10.0 mi ENE 5.8 mph - N/A   Overcast
7:53 PM 44.1 °F 42.5 °F 37.9 °F 79% 30.04 in 10.0 mi East 3.5 mph - N/A   Overcast
8:53 PM 43.0 °F - 39.0 °F 86% 30.06 in 10.0 mi Calm Calm - N/A   Overcast
9:53 PM 43.0 °F - 39.0 °F 86% 30.08 in 10.0 mi Calm Calm - N/A   Overcast
10:22 PM 42.8 °F - 37.4 °F 81% 30.08 in 10.0 mi Calm Calm - N/A   Overcast
10:53 PM 43.0 °F - 39.0 °F 86% 30.11 in 10.0 mi Calm Calm - N/A   Overcast
11:48 PM 41.0 °F 33.5 °F 35.6 °F 81% 30.11 in 10.0 mi East 13.8 mph - N/A   Overcast
11:53 PM 41.0 °F 33.5 °F 35.1 °F 79% 30.13 in 10.0 mi East 13.8 mph - N/A   Overcast